"Pseudo-MPEC" for P11oQiQ

Created 2021 Nov 28 17:07:21 UT using Find_Orb

Click here for an explanation of pseudo-MPECs

 
 Astrometry: 
     P11oQiQ  C2021 11 118n*;$wSk`VeDb5AstrometryW[S)2W3pAAo#:Zo.?II7(Esa!9+=F51
     P11oQiQ  C2021 11 119Atredacted;ttW`+DW'fL*`ShY7K*7pXxqq^4click0Yb^-tDl!F51
     P11oQiQ  C2021 11 11s*'#dBhereVR!3C=5vugGlK5Vfor*R:kL9^jnWOv5mrEFsXCTvX*F51
     P11oQiQ  C2021 11 11KFRrKgN0?C!E6_6*=?R2xQ2L0VZ`hd14)`^explanation2pWUq#F51

Station data:
(F51) Pan-STARRS 1, Haleakala  (N20.707235 W156.255910)  US/Hawaii.
   Observers N. Primak, A. Schultz, S. Watters, J. Thiel, T. Goggia. Measurer
   PS1 Science Consortium. 1.8-m Ritchey-Chrétien + CCD.

Orbital elements:  P11oQiQ
   Perihelion 2021 Dec 18.633043 +/- 809.694 TT = 15:11:34 (JD 2459567.133043)
Epoch 2021 Nov 11.0 TT = JDT 2459529.5   Earth MOID: 0.6306   AutoNEOCP
M 351.37303436 +/- 51.827161        (J2000 ecliptic)
n   0.22923911 +/- 0.137187         Peri.  308.19676 +/- 99.347117
a   2.64409402 +/- 1.05488          Node   123.91687 +/- 40.434980
e   0.4034249 +/- 0.211265          Incl.   13.49875 +/- 35.744158
P   4.30                   H 21.4   G  0.15   U 11.5  SR
q 1.57740057 +/- 1.80784    Q 3.71078747 +/- 80.3965
From 4 observations 2021 Nov. 11 (55.7 min); mean residual 0".05
Residuals in arcseconds: 
211111 F51  .06-  .03+    211111 F51  .03+  .02+    
211111 F51  .07+  .06-    211111 F51  .05-  .00     

Ephemerides (geocentric):
Date (UTC) HH   RA              Dec         delta   r     elong  mag " sig PA
---- -- -- --  -------------   -----------  ------ ------ -----  --- ---- ---
2021 11 28 17  03 48 11.192   -10 41 26.92  .66532 1.5869 147.1 22.5  24d   9
2021 11 28 18  03 48 09.749   -10 41 01.31  .66533 1.5868 147.1 22.5  24d   9
2021 11 28 19  03 48 08.308   -10 40 35.63  .66534 1.5868 147.1 22.5  24d   9
2021 11 28 20  03 48 06.867   -10 40 09.88  .66535 1.5868 147.1 22.5  24d   9
2021 11 28 21  03 48 05.428   -10 39 44.07  .66537 1.5867 147.1 22.5  24d   9
2021 11 28 22  03 48 03.990   -10 39 18.19  .66538 1.5867 147.1 22.5  24d   9
2021 11 28 23  03 48 02.553   -10 38 52.25  .66539 1.5866 147.0 22.5  24d   9
2021 11 29 00  03 48 01.117   -10 38 26.25  .66541 1.5866 147.0 22.5  24d   9
2021 11 29 01  03 47 59.682   -10 38 00.18  .66542 1.5866 147.0 22.5  24d   9
2021 11 29 02  03 47 58.249   -10 37 34.04  .66543 1.5865 147.0 22.5  24d   9
2021 11 29 03  03 47 56.816   -10 37 07.84  .66545 1.5865 147.0 22.5  24d   9
2021 11 29 04  03 47 55.385   -10 36 41.57  .66546 1.5864 147.0 22.5  24d   9
2021 11 29 05  03 47 53.955   -10 36 15.24  .66548 1.5864 147.0 22.5  24d   9
2021 11 29 06  03 47 52.526   -10 35 48.84  .66549 1.5864 147.0 22.5  24d   9
2021 11 29 07  03 47 51.098   -10 35 22.38  .66551 1.5863 146.9 22.5  24d   9
2021 11 29 08  03 47 49.672   -10 34 55.86  .66552 1.5863 146.9 22.5  24d   9
2021 11 29 09  03 47 48.246   -10 34 29.26  .66554 1.5863 146.9 22.5  24d   9
2021 11 29 10  03 47 46.822   -10 34 02.61  .66556 1.5862 146.9 22.5  24d   9
2021 11 29 11  03 47 45.399   -10 33 35.89  .66557 1.5862 146.9 22.5  24d   9
2021 11 29 12  03 47 43.978   -10 33 09.10  .66559 1.5861 146.9 22.5  24d   9
2021 11 29 13  03 47 42.557   -10 32 42.25  .66561 1.5861 146.9 22.5  24d   9
2021 11 29 14  03 47 41.138   -10 32 15.34  .66562 1.5861 146.9 22.5  24d   9
2021 11 29 15  03 47 39.720   -10 31 48.36  .66564 1.5860 146.9 22.5  24d   9
2021 11 29 16  03 47 38.304   -10 31 21.31  .66566 1.5860 146.8 22.5  24d   9
2021 11 29 17  03 47 36.888   -10 30 54.20  .66568 1.5860 146.8 22.5  24d   9
2021 11 29 18  03 47 35.474   -10 30 27.03  .66570 1.5859 146.8 22.5  24d   9
2021 11 29 19  03 47 34.061   -10 29 59.79  .66572 1.5859 146.8 22.5  24d   9
2021 11 29 20  03 47 32.650   -10 29 32.48  .66573 1.5858 146.8 22.5  24d   9
2021 11 29 21  03 47 31.240   -10 29 05.12  .66575 1.5858 146.8 22.5  24d   9
2021 11 29 22  03 47 29.831   -10 28 37.68  .66577 1.5858 146.8 22.5  24d   9
2021 11 29 23  03 47 28.423   -10 28 10.19  .66579 1.5857 146.8 22.5  24d   9
2021 11 30 00  03 47 27.017   -10 27 42.62  .66581 1.5857 146.7 22.5  24d   8
2021 11 30 01  03 47 25.612   -10 27 15.00  .66583 1.5857 146.7 22.5  24d   8
2021 11 30 02  03 47 24.209   -10 26 47.31  .66585 1.5856 146.7 22.5  24d   8
2021 11 30 03  03 47 22.806   -10 26 19.55  .66588 1.5856 146.7 22.5  24d   8
2021 11 30 04  03 47 21.406   -10 25 51.73  .66590 1.5855 146.7 22.5  24d   8
2021 11 30 05  03 47 20.006   -10 25 23.85  .66592 1.5855 146.7 22.5  24d   8
2021 11 30 06  03 47 18.608   -10 24 55.90  .66594 1.5855 146.7 22.5  24d   8
2021 11 30 07  03 47 17.211   -10 24 27.89  .66596 1.5854 146.7 22.5  24d   8
2021 11 30 08  03 47 15.816   -10 23 59.81  .66598 1.5854 146.6 22.5  24d   8
2021 11 30 09  03 47 14.422   -10 23 31.67  .66601 1.5854 146.6 22.5  24d   8
2021 11 30 10  03 47 13.030   -10 23 03.47  .66603 1.5853 146.6 22.5  24d   8
2021 11 30 11  03 47 11.639   -10 22 35.20  .66605 1.5853 146.6 22.5  24d   8
2021 11 30 12  03 47 10.249   -10 22 06.86  .66608 1.5853 146.6 22.5  24d   8
2021 11 30 13  03 47 08.861   -10 21 38.46  .66610 1.5852 146.6 22.5  24d   8
2021 11 30 14  03 47 07.474   -10 21 10.00  .66612 1.5852 146.6 22.5  24d   8
2021 11 30 15  03 47 06.089   -10 20 41.48  .66615 1.5851 146.6 22.5  24d   8
2021 11 30 16  03 47 04.705   -10 20 12.89  .66617 1.5851 146.5 22.5  24d   8